[TLELIST] Archives

 

[list_settings.list_name] Current TLEs

August 27th 2008 PDT

HST 1 20580U 90037B 08240.18578958 .00000286 00000-0 92737-5 0 2081 2 20580 028.4682 220.1432 0003724 060.8624 299.2338 15.00402199805654 ISS (ZARYA) 1 25544U 98067A 08239.85900280 .00006746 00000-0 56963-4 0 1307 2 25544 051.6434 013.6935 0008826 060.3551 077.1240 15.71146014559657 CXO 1 25867U 99040B 08239.00000000 -.00000004 +00000-0 +10000-3 0 02365 2 25867 064.1032 078.5165 6956148 278.2090 002.3190 00.37795790003897 ____________________________________________________________________ These 2-Line ...Continue Reading

[list_settings.list_name] Current TLEs

August 26th 2008 PDT

HST 1 20580U 90037B 08238.38980160 .00000311 00000-0 11212-4 0 2078 2 20580 028.4687 231.8593 0003619 042.4576 317.6293 15.00401989805382 ISS (ZARYA) 1 25544U 98067A 08237.88716429 +.00006874 +00000-0 +58026-4 0 01188 2 25544 051.6429 023.7751 0008791 053.7228 083.3938 15.71117447559344 CXO 1 25867U 99040B 08239.00000000 -.00000004 +00000-0 +10000-3 0 02365 2 25867 064.1032 078.5165 6956148 278.2090 002.3190 00.37795790003897 ____________________________________________________________________ These 2-Line ...Continue Reading

[list_settings.list_name] Current TLEs

August 25th 2008 PDT

HST 1 20580U 90037B 08236.46077610 +.00000297 +00000-0 +10133-4 0 02223 2 20580 028.4691 244.4402 0003547 020.8265 339.2467 15.00401393805091 ISS (ZARYA) 1 25544U 98067A 08238.17943287 .00006850 00000-0 57824-4 0 1195 2 25544 051.6431 022.2803 0008795 054.7965 296.5118 15.71121709559380 CXO 1 25867U 99040B 08233.66666667 +.00000192 +00000-0 +10000-3 0 02354 2 25867 064.0690 078.7031 6952793 278.2667 356.2363 00.37808290003873 ____________________________________________________________________ These 2-Line ...Continue Reading

[list_settings.list_name] Current TLEs

August 24th 2008 PDT

HST 1 20580U 90037B 08237.19247571 .00000295 00000-0 99404-5 0 2068 2 20580 028.4690 239.6690 0003556 028.7444 331.3340 15.00401562805205 ISS (ZARYA) 1 25544U 98067A 08237.16163194 .00007044 00000-0 59362-4 0 1144 2 25544 051.6429 027.4850 0008746 050.9421 299.8026 15.71107239559226 CXO 1 25867U 99040B 08233.66666667 +.00000192 +00000-0 +10000-3 0 02354 2 25867 064.0690 078.7031 6952793 278.2667 356.2363 00.37808290003873 ____________________________________________________________________ These 2-Line ...Continue Reading

[list_settings.list_name] Current TLEs

August 23rd 2008 PDT

HST 1 20580U 90037B 08235.46300390 .00000293 00000-0 98489-5 0 2054 2 20580 028.4692 250.9473 0003540 009.5587 350.5068 15.00401113804942 ISS (ZARYA) 1 25544U 98067A 08236.14077546 .00007568 00000-0 63458-4 0 1081 2 25544 051.6422 032.7048 0008670 047.4221 285.5237 15.71093576559068 CXO 1 25867U 99040B 08233.66666667 +.00000192 +00000-0 +10000-3 0 02354 2 25867 064.0690 078.7031 6952793 278.2667 356.2363 00.37808290003873 ____________________________________________________________________ These 2-Line ...Continue Reading

[list_settings.list_name] Current TLEs

August 22nd 2008 PDT

HST 1 20580U 90037B 08233.53397704 +.00000289 +00000-0 +94947-5 0 02189 2 20580 028.4694 263.5273 0003528 348.4868 011.5639 15.00400612804654 ISS (ZARYA) 1 25544U 98067A 08235.18692130 .00008481 00000-0 70571-4 0 1030 2 25544 051.6423 037.5819 0008550 043.7842 290.6310 15.71081565558910 CXO 1 25867U 99040B 08233.66666667 +.00000192 +00000-0 +10000-3 0 02354 2 25867 064.0690 078.7031 6952793 278.2667 356.2363 00.37808290003873 ____________________________________________________________________ These 2-Line ...Continue Reading

[list_settings.list_name] Current TLEs

August 21st 2008 PDT

HST 1 20580U 90037B 08234.19915878 .00000288 00000-0 94198-5 0 2042 2 20580 028.4693 259.1901 0003518 355.2429 004.8125 15.00400767804757 ISS (ZARYA) 1 25544U 98067A 08232.86279256 +.00007408 +00000-0 +62374-4 0 00907 2 25544 051.6425 049.4633 0008457 035.6372 105.0816 15.71035575558552 CXO 1 25867U 99040B 08233.66666667 +.00000192 +00000-0 +10000-3 0 02354 2 25867 064.0690 078.7031 6952793 278.2667 356.2363 00.37808290003873 ____________________________________________________________________ These 2-Line ...Continue Reading

[list_settings.list_name] Current TLEs

August 20th 2008 PDT

HST 1 20580U 90037B 08232.53620438 .00000281 00000-0 88450-5 0 2039 2 20580 028.4694 270.0343 0003529 337.3752 022.6680 15.00400299804509 ISS (ZARYA) 1 25544U 98067A 08233.11120608 .00007537 00000-0 63358-4 0 920 2 25544 051.6425 048.1933 0008434 036.8556 069.7721 15.71040199558596 CXO 1 25867U 99040B 08231.04166667 +.00000184 +00000-0 +10000-3 0 02349 2 25867 064.0514 078.7867 6949254 278.2589 358.9609 00.37807084003867 ____________________________________________________________________ These 2-Line ...Continue Reading

[list_settings.list_name] Current TLEs

August 19th 2008 PDT

HST 1 20580U 90037B 08230.54065930 +.00000305 +00000-0 +10745-4 0 02160 2 20580 028.4693 283.0549 0003504 313.0930 046.9365 15.00399996804209 ISS (ZARYA) 1 25544U 98067A 08232.03721262 .00006790 00000-0 57606-4 0 854 2 25544 051.6421 053.6847 0008366 033.4920 114.8444 15.71019837558420 CXO 1 25867U 99040B 08231.04166667 +.00000184 +00000-0 +10000-3 0 02349 2 25867 064.0514 078.7867 6949254 278.2589 358.9609 00.37807084003867 ____________________________________________________________________ These 2-Line ...Continue Reading

[list_settings.list_name] Current TLEs

August 18th 2008 PDT

HST 1 20580U 90037B 08229.60940479 +.00000302 +00000-0 +10507-4 0 02146 2 20580 028.4694 289.1292 0003545 302.4081 057.6163 15.00399731804062 ISS (ZARYA) 1 25544U 98067A 08230.55399641 .00006516 00000-0 55528-4 0 768 2 25544 051.6423 061.2687 0008351 028.8270 005.3382 15.70996748558192 CXO 1 25867U 99040B 08231.04166667 +.00000184 +00000-0 +10000-3 0 02349 2 25867 064.0514 078.7867 6949254 278.2589 358.9609 00.37807084003867 ____________________________________________________________________ These 2-Line ...Continue Reading
  • This mailing list is a public mailing list - anyone may join or leave, at any time.
  • This mailing list is announce-only.

International Space Station (ISS) / Hubble Space Telescope (HST) / Chandra X-Ray Observatory Orbital Data via EMAIL

Privacy Policy:

Private list